Showing default

GLOBALSTAR M070, 32264

Orbit data source: Space-Track

GLOBALSTAR M070, 32264 is a payload satellite owned by Globalstar (US) in LEO that was launched on Sat, 20 Oct 2007 UTC via a SOYUZ-FG launch vehicle from the Tyuratam Missile And Space Complex (TTMTR). Payload-class satellites include a variety of spacecraft equipped with specific instruments for various scientific and technological missions. These include communications satellites like Starlink; space stations such as the ISS; scientific satellites like the Hubble; Earth observation satellites from companies like Planet Labs, Umbra, and HawkEye 360; GPS; miniature CubeSats for education and research; and military/defense satellites.

Loading next visibility...
Identifier
32264, 2007-048B
Orbit
LEO
Country
Flag of UnknownUnknown / GLOB
Related business
Manufacturer
SS/Loral
Mission
Non-operational Commercial Communications
Bus & Motor
LS-400, LS-400 AOCS
Mass
450 kg wet, 380 kg dry
Launch date (UTC)
2007-10-20 (18 years ago)
Launch vehicle
SOYUZ-FG
Launch site
Tyuratam Missile And Space Complex (TTMTR)
Object type
Payload
Rocket body
Debris
Shape & HBR
Box + 2 Pan, 6.0 m
Radar Cross Section
5.587 m², Large (>1 m²)

Expand to show TLE details & history
Last TLE update: 19 hours ago

TLE from 19 hours ago
0 GLOBALSTAR M070
1 32264U 07048B   25309.02162986 -.00000119  00000-0 -83319-4 0  9990
2 32264  51.9757  59.4585 0000872 114.0225  57.8628 12.62325029831450
Epoch: 2025-11-05T00:31Z
TLE epoch observation values (Epoch: 2025-11-05T00:31:08.819Z)
Latitude
6.34416°
Longitude
-177.79143°
Altitude
1,413.084 km
Speed
7.156 km/s
True Right ascension
15h 37m 58s
True Declination
6° 18' 35"
Sunlit
Object was in daylight at epoch
Visualization orbit readout
Latitude
Unknown
Longitude
Unknown
Altitude
Unknown
Speed
Unknown
Apparent Right ascension
Unknown
Apparent Declination
Unknown
Sunlit
N/A
Visualization observer readout
Local Sidereal Time
15:25:26
Azimuth
Unknown
Elevation
Unknown
Doppler factor
Unknown
Orbital elements
Apogee altitude
1,414.438 km
Perigee altitude
1,413.079 km
Semi-major axis
7,791.895 km
Eccentricity
0.00009
Inclination
51.9757°
RAAN
59.4585°
Arg. of periapsis
114.0225°
True anomaly
57.87126°
Mean anomaly
57.8628°
Eccentric anomaly
57.86703°
Mean motion
3.15558 °/min
Orbital period
114.08 mins
BSTAR
-0.000083319
Loading maneuver chart data...
Computing Atmospheric mass density...
Loading historical data...
Loading historical data...
Loading historical data...
Loading historical data...
Loading historical data...
Loading historical data...
Loading historical data...
Other satellites on launch #48 in the year 2007 (2007-10-20 UTC)

Documentation

Showing up to 5 results
|